SL-16 DEB, 22295

Orbit data source: Space-Track

SL-16 DEB, 22295 is space debris in LEO originally from a launch on Fri, 25 Dec 1992 UTC launched from the Tyuratam Missile And Space Complex (TTMTR). Debris objects in space refer to the collection of defunct objects orbiting the Earth. Examples of debris include non-operational satellites, rocket bodies, and fragments generated from explosions, collisions, or faulty payload assembly.

Loading next visibility...
Identifier
22295, 1992-093K
Orbit
LEO
Country
Flag of CISCIS
Related business
Manufacturer
Unknown
Mission
Spacecraft
Bus & Motor
Unknown
Mass
Unknown
Launch date (UTC)
1992-12-25 (33 years ago)
Launch vehicle
Unknown
Launch site
Tyuratam Missile And Space Complex (TTMTR)
Object type
Payload
Rocket body
Debris
Shape & HBR
Unknown shape, 0.5 m
Radar Cross Section
Medium (>0.1 m² and <1 m²)

Expand to show TLE details & history
Last TLE update: 14 hours ago

TLE from 14 hours ago
0 SL-16 DEB
1 22295U 92093K   25296.42361575  .00000448  00000-0  28432-3 0  9998
2 22295  71.0045 295.5965 0094884  59.7833  53.3454 14.06984114683850
Epoch: 2025-10-23T10:10Z
TLE epoch observation values (Epoch: 2025-10-23T10:10:00.400Z)
Latitude
59.84975°
Longitude
-105.11046°
Altitude
838.703 km
Speed
7.46 km/s
True Right ascension
05h 17m 53s
True Declination
59° 42' 07"
Sunlit
Object was in full shadow at epoch
Visualization orbit readout
Latitude
Unknown
Longitude
Unknown
Altitude
Unknown
Speed
Unknown
Apparent Right ascension
Unknown
Apparent Declination
Unknown
Sunlit
N/A
Visualization observer readout
Local Sidereal Time
19:35:34
Azimuth
Unknown
Elevation
Unknown
Doppler factor
Unknown
Orbital elements
Apogee altitude
936.393 km
Perigee altitude
798.892 km
Semi-major axis
7,245.78 km
Eccentricity
0.00949
Inclination
71.0045°
RAAN
295.5965°
Arg. of periapsis
59.7833°
True anomaly
54.22386°
Mean anomaly
53.3454°
Eccentric anomaly
53.78401°
Mean motion
3.51897 °/min
Orbital period
102.3 mins
BSTAR
0.00028432
Loading maneuver chart data...
Computing Atmospheric mass density...
Loading historical data...
Loading historical data...
Loading historical data...
Loading historical data...
Loading historical data...
Loading historical data...
Loading historical data...

Documentation

Showing up to 5 results
|